Spokane, WA
on Thursday, January 31, 2013

Thursday
Previous Day Next Day
Daily Summary
 ActualAverageRecord
Temperature
Mean Temperature °F 31°F  
Max Temperature 40°F 37°F 58°F (1971)
Min Temperature 34°F 26°F -21°F (1950)
Degree Days
Heating Degree Days 28 34  
Month to date heating degree days 1243 1099  
Since 1 July heating degree days 3668 3933  
Cooling Degree Days 0 0  
Month to date cooling degree days 0 0  
Year to date cooling degree days 0 0  
Moisture
Dew Point 35°F   
Average Humidity 93    
Maximum Humidity 100    
Minimum Humidity 85    
Precipitation
Precipitation T in 0.05 in 0.74 in (1963)
Month to date precipitation 1.63 1.79  
Year to date precipitation 1.63 1.79  
Snow
Snow 0.00 in 0.30 in 8.60 in (1932)
Month to date snowfall 14.2 11.4  
Since 1 July snowfall 38.2 33.5  
Snow Depth 1.00 in   
Wind
Wind Speed 7 mph   
Max Wind Speed 13 mph   
Max Gust Speed 16 mph   
Visibility 5 miles   
Events Fog , Rain   

Key: T is trace of precipitation, MM is missing value
Source: NWS Daily Summary
Time(PST)TemperatureDew PointHumidity Pressure Visibility Wind DirectionWind SpeedGust SpeedPrecipitationEvents Conditions
12:53 AM 35.1°F 33.1°F 92% 30.27 in 2.0 miles South 6.9 mph - N/A   Overcast
1:26 AM 33.8°F 33.8°F 100% 30.21 in 0.5 miles South 4.6 mph - N/A   Overcast
1:45 AM 33.8°F 33.8°F 100% 30.22 in 2.0 miles South 8.1 mph - N/A   Overcast
1:53 AM 34.0°F 33.1°F 96% 30.27 in 2.0 miles South 6.9 mph - N/A   Overcast
2:53 AM 35.1°F 33.1°F 92% 30.26 in 2.0 miles SSW 10.4 mph - N/A   Overcast
3:53 AM 35.1°F 33.1°F 92% 30.26 in 2.0 miles SSW 12.7 mph - N/A   Overcast
4:16 AM 33.8°F 33.8°F 100% 30.22 in 0.5 miles SW 8.1 mph - N/A   Overcast
4:53 AM 35.1°F 33.1°F 92% 30.27 in 1.0 miles SSW 4.6 mph - N/A   Overcast
5:53 AM 35.1°F 34.0°F 96% 30.27 in 1.0 miles SE 3.5 mph - N/A   Overcast
6:53 AM 35.1°F 34.0°F 96% 30.28 in 0.5 miles Calm Calm - N/A Fog Fog
7:53 AM 35.1°F 35.1°F 100% 30.27 in 0.2 miles South 4.6 mph - N/A Fog Fog
8:53 AM 36.0°F 36.0°F 100% 30.27 in 0.5 miles South 8.1 mph - N/A Fog Fog
9:53 AM 36.0°F 36.0°F 100% 30.28 in 0.5 miles SSW 10.4 mph - N/A   Overcast
10:53 AM 36.0°F 35.1°F 97% 30.29 in 0.5 miles SSW 10.4 mph - N/A Fog Fog
11:53 AM 37.0°F 36.0°F 96% 30.28 in 1.0 miles SSW 9.2 mph - N/A   Overcast
12:17 PM 37.4°F 35.6°F 93% 30.22 in 8.0 miles SSW 6.9 mph - N/A   Overcast
12:53 PM 37.0°F 35.1°F 93% 30.27 in 10.0 miles SSW 10.4 mph - N/A   Overcast
1:53 PM 39.0°F 36.0°F 89% 30.25 in 10.0 miles SSW 6.9 mph - N/A   Overcast
2:34 PM 39.2°F 35.6°F 87% 30.19 in 10.0 miles SSW 8.1 mph - N/A   Mostly Cloudy
2:53 PM 39.9°F 36.0°F 86% 30.25 in 10.0 miles SSW 10.4 mph - N/A   Mostly Cloudy
3:53 PM 39.0°F 35.1°F 86% 30.25 in 10.0 miles SSW 8.1 mph - N/A   Overcast
4:53 PM 39.0°F 35.1°F 86% 30.23 in 10.0 miles SSW 9.2 mph - 0.00 in Rain Light Rain
5:53 PM 37.9°F 35.1°F 89% 30.22 in 10.0 miles South 5.8 mph - 0.00 in Rain Light Rain
6:53 PM 39.0°F 35.1°F 86% 30.21 in 10.0 miles South 9.2 mph - 0.00 in   Overcast
7:53 PM 37.9°F 35.1°F 89% 30.21 in 10.0 miles Calm Calm - N/A   Mostly Cloudy
8:53 PM 36.0°F 34.0°F 93% 30.20 in 10.0 miles SSW 8.1 mph - N/A   Scattered Clouds
9:53 PM 37.0°F 35.1°F 93% 30.19 in 10.0 miles SSW 8.1 mph - N/A   Mostly Cloudy
10:53 PM 36.0°F 33.1°F 89% 30.20 in 10.0 miles SW 9.2 mph - N/A   Scattered Clouds
11:53 PM 34.0°F 32.0°F 92% 30.22 in 10.0 miles West 4.6 mph - N/A   Partly Cloudy
Moon Phase
Jan. 31 Feb. 03 Feb. 10 Feb. 17 Feb. 25
Sunrise:07:17 AM (PST) Moon Rise:10:24 PM (PST)
Sunset:04:50 PM (PST) Moon Set:08:55 AM (PST)

Copyright © 2014 The Weather Underground, Inc.